Location: Aubervilles
(48.9167°N, 2.3833°E)
Time: 11:03:09
(UTC+00:00)

CZ-4 R/B - Pass Details

Date: 03 February 2023
Orbit: 526 x 586 km, 97.7° (Epoch: 29 March)

Event Time Altitude Azimuth Distance (km) Brightness Sun altitude
Rises 18:03:06 0° 139° (SE) 2,799 4.6 -12.1°
Reaches altitude 10° 18:05:25 10° 129° (SE) 1,897 3.7 -12.5°
Maximum altitude 18:09:03 31° 67° (ENE) 1,031 2.2 -13.1°
Drops below altitude 10° 18:12:39 10° 6° (N) 1,881 3.9 -13.7°
Sets 18:14:56 0° 356° (N) 2,772 4.9 -14.0°
